This demonstration page uses our WeatherBlox Daily Observations layout. Learn more.

Hourly Observations for October 23, 2019

Temp ( °F °C ) Dew Point ( °F °C ) Humidity (%) Winds ( mph kmh ) Pressure ( in mb ) Visibility ( mi km ) Precip ( " mm )
12:15 am 00:15 Cloudy 52 11 32 0 47 47 SSW 3 6 29.85 1011 10 16.0934 0 0
12:35 am 00:35 Cloudy 52 10.9 32 0 47 47 S 5 7 29.8 1009 10 16.0934 0 0
12:55 am 00:55 Cloudy 51 10.6 31 -0.8 45 45 S 8 13 29.83 1010 10 16.0934 0 0
1:15 am 01:15 Cloudy 53 11.5 29 -1.7 40 40 S 7 11 29.8 1009 10 16.0934 0 0
1:35 am 01:35 Cloudy 51 10.6 30 -1.2 44 44 S 12 19 29.77 1008 10 16.0934 0 0
1:55 am 01:55 Mostly Cloudy 50 9.8 30 -1.1 47 47 S 8 13 29.8 1009 10 16.0934 0 0
2:15 am 02:15 Clear 49 9.6 31 -0.5 50 50 S 7 11 29.8 1009 10 16.0934 0 0
2:35 am 02:35 Partly Cloudy 49 9.4 32 -0.2 51 51 S 5 7 29.8 1009 10 16.0934 0 0
2:55 am 02:55 Mostly Cloudy 50 9.8 32 -0.1 50 50 SSW 8 13 29.8 1009 10 16.0934 0 0
3:15 am 03:15 Mostly Cloudy 50 10.1 32 -0.2 49 49 S 9 15 29.8 1009 10 16.0934 0 0
3:35 am 03:35 Cloudy 51 10.5 32 -0.2 48 48 S 9 15 29.77 1008 10 16.0934 0 0
3:55 am 03:55 Mostly Cloudy 51 10.5 32 -0.2 48 48 SSW 7 11 29.77 1008 10 16.0934 0 0
4:15 am 04:15 Partly Cloudy 50 10 32 0 50 50 SSW 8 13 29.8 1009 10 16.0934 0 0
4:35 am 04:35 Partly Cloudy 48 9 32 0 54 54 SW 8 13 29.8 1009 10 16.0934 0 0
4:55 am 04:55 Clear 48 8.8 32 0 54 54 SW 8 13 29.8 1009 10 16.0934 0 0
5:15 am 05:15 Clear 48 9 32 0 54 54 WSW 9 15 29.8 1009 10 16.0934 0 0
5:35 am 05:35 Clear 51 10.3 32 0.1 50 50 WSW 12 19 29.8 1009 10 16.0934 0 0
5:55 am 05:55 Clear 51 10.8 33 0.3 49 49 W 15 24 29.77 1008 10 16.0934 0 0
6:15 am 06:15 Clear 51 10.7 34 1.1 52 52 W 15 24 29.77 1008 10 16.0934 0 0
6:35 am 06:35 Clear 51 10.7 36 2 55 55 W 14 22 29.77 1008 10 16.0934 0 0
6:55 am 06:55 Clear 50 9.8 36 2.4 60 60 WNW 13 20 29.8 1009 10 16.0934 0 0
7:15 am 07:15 Clear 50 9.8 38 3.5 65 65 WNW 13 20 29.83 1010 10 16.0934 0 0
7:35 am 07:35 Clear 49 9.6 39 4 68 68 NW 14 22 29.83 1010 10 16.0934 0 0
7:55 am 07:55 Clear 49 9.4 40 4.5 72 72 NW 14 22 29.83 1010 10 16.0934 0 0
8:15 am 08:15 Sunny 49 9.2 40 4.6 73 73 NW 15 24 29.88 1012 10 16.0934 0 0
8:35 am 08:35 Sunny 49 9.6 41 5 73 73 NW 17 28 29.88 1012 10 16.0934 0 0
8:55 am 08:55 Partly Cloudy 49 9.4 40 4.6 72 72 NW 13 20 29.88 1012 10 16.0934 0 0
9:55 am 09:55 Sunny 51 10.8 41 5 68 68 WNW 20 31 29.94 1014 10 16.0934 0 0
10:15 am 10:15 Sunny 53 11.5 40 4.6 63 63 NW 17 28 29.94 1014 10 16.0934 0 0
10:35 am 10:35 Sunny 54 12 39 3.9 58 58 NW 16 26 29.91 1013 10 16.0934 0 0
10:55 am 10:55 Sunny 54 12.2 38 3.6 56 56 NW 16 26 29.91 1013 10 16.0934 0 0
11:35 am 11:35 Sunny 55 13 38 3.6 53 53 NNW 20 31 29.94 1014 10 16.0934 0 0
11:55 am 11:55 Sunny 56 13.4 38 3.2 50 50 NNW 12 19 29.94 1014 10 16.0934 0 0
12:15 pm 12:15 Sunny 58 14.2 38 3.3 48 48 NW 16 26 29.91 1013 10 16.0934 0 0
12:35 pm 12:35 Sunny 58 14.3 37 2.6 46 46 NNW 13 20 29.91 1013 10 16.0934 0 0
12:55 pm 12:55 Sunny 59 14.9 37 2.5 43 43 NNW 13 20 29.94 1014 10 16.0934 0 0
1:15 pm 13:15 Sunny 59 14.9 37 2.6 44 44 NW 15 24 29.91 1013 10 16.0934 0 0
1:35 pm 13:35 Sunny 59 15.1 36 2.4 43 43 NW 12 19 29.91 1013 10 16.0934 0 0
1:55 pm 13:55 Sunny 60 15.7 35 1.8 39 39 NW 13 20 29.88 1012 10 16.0934 0 0
2:15 pm 14:15 Sunny 60 15.8 35 1.6 38 38 NW 17 28 29.88 1012 10 16.0934 0 0
2:35 pm 14:35 Sunny 61 16.2 34 1.3 37 37 WNW 17 28 29.88 1012 10 16.0934 0 0
2:55 pm 14:55 Sunny 62 16.6 33 0.7 34 34 WNW 18 30 29.88 1012 10 16.0934 0 0
3:15 pm 15:15 Partly Cloudy 62 16.9 33 0.5 33 33 WNW 21 33 29.88 1012 10 16.0934 0 0
3:35 pm 15:35 Sunny 62 16.5 32 0.1 33 33 NW 21 33 29.88 1012 10 16.0934 0 0
3:55 pm 15:55 Sunny 62 16.5 32 0 33 33 WNW 18 30 29.88 1012 10 16.0934 0 0
4:15 pm 16:15 Sunny 62 16.5 31 -0.3 32 32 NW 20 31 29.88 1012 10 16.0934 0 0
4:35 pm 16:35 Sunny 61 16.3 30 -1.1 31 31 NW 24 39 29.88 1012 10 16.0934 0 0
4:55 pm 16:55 Sunny 61 16.1 30 -1.1 31 31 NW 20 31 29.91 1013 10 16.0934 0 0
5:15 pm 17:15 Sunny 59 15.1 29 -1.5 32 32 NW 18 30 29.94 1014 10 16.0934 0 0
5:35 pm 17:35 Sunny 59 14.8 31 -0.7 35 35 N 17 28 29.97 1015 10 16.0934 0 0
5:55 pm 17:55 Sunny 55 13 36 2.4 49 49 N 18 30 29.97 1015 10 16.0934 0 0
6:15 pm 18:15 Sunny 55 12.5 36 2.4 50 50 NNW 21 33 30.03 1017 10 16.0934 0 0
6:35 pm 18:35 Sunny 52 11 36 2.2 55 55 N 18 30 30.06 1018 10 16.0934 0 0
6:55 pm 18:55 Clear 51 10.3 35 1.9 56 56 NNW 17 28 30.09 1019 10 16.0934 0 0
7:15 pm 19:15 Clear 48 8.8 35 1.7 61 61 N 24 39 30.12 1020 10 16.0934 0 0
7:35 pm 19:35 Clear 44 6.5 35 1.8 72 72 NNW 24 39 30.18 1022 10 16.0934 0 0
7:55 pm 19:55 Mostly Cloudy 42 5.3 35 1.5 77 77 N 20 31 30.18 1022 10 16.0934 0 0
8:15 pm 20:15 Cloudy 40 4.6 34 1 78 78 N 15 24 30.21 1023 10 16.0934 0 0
8:35 pm 20:35 Cloudy 39 3.9 32 0 76 76 N 21 33 30.27 1025 10 16.0934 0 0
8:55 pm 20:55 Cloudy 38 3.6 31 -0.5 75 75 N 17 28 30.3 1026 10 16.0934 0 0
9:15 pm 21:15 Cloudy 38 3.3 31 -0.5 76 76 N 18 30 30.3 1026 10 16.0934 0 0
9:35 pm 21:35 Cloudy 37 2.8 30 -1.3 75 75 N 16 26 30.33 1027 10 16.0934 0 0
9:55 pm 21:55 Mostly Cloudy 37 2.6 29 -1.4 75 75 N 17 28 30.33 1027 10 16.0934 0 0
10:15 pm 22:15 Partly Cloudy 36 2.2 28 -2 74 74 N 17 28 30.36 1028 10 16.0934 0 0
10:35 pm 22:35 Partly Cloudy 36 2 29 -1.7 77 77 N 16 26 30.39 1029 10 16.0934 0 0
10:55 pm 22:55 Mostly Cloudy 36 2 29 -1.5 78 78 N 13 20 30.42 1030 10 16.0934 0 0
11:15 pm 23:15 Partly Cloudy 35 1.8 30 -1.3 80 80 N 14 22 30.42 1030 10 16.0934 0 0
11:35 pm 23:35 Mostly Cloudy 36 2 30 -1.3 79 79 N 10 17 30.42 1030 10 16.0934 0 0
11:55 pm 23:55 Mostly Cloudy 35 1.6 29 -1.5 80 80 N 13 20 30.39 1029 10 16.0934 0 0

Powered by AerisWeather